• In Deutschland
  • Länderverzeichnis
  • Für 7 Tage
  • Wassertemperatur
  • Satellitenkarten
  • Wetterkarte
  • Widgets
  • user-avatar
    Anmelden

    Stündliche Wetter Königsfeld im Schwarzwald

    Heute, 12 Dezember, Dienstag

    Zeit Temperatur Niederschläge Wind Luftdruck Luftfeuchtigkeit
    00:00 0°C° 0,1 mm 5 m/S 675 mmHg 86%
    01:00 0°C° 0 mm 5 m/S 676 mmHg 86%
    02:00 -1°C° 0,1 mm 5 m/S 677 mmHg 86%
    03:00 -3°C° 0,1 mm 6 m/S 678 mmHg 85%
    04:00 -3°C° 0,1 mm 6 m/S 680 mmHg 84%
    05:00 -4°C° 0 mm 6 m/S 681 mmHg 85%
    06:00 -4°C° 0 mm 5 m/S 682 mmHg 85%
    07:00 -4°C° 0 mm 4 m/S 684 mmHg 87%
    08:00 -3°C° 0 mm 4 m/S 685 mmHg 86%
    09:00 -3°C° 0 mm 4 m/S 686 mmHg 84%
    10:00 -3°C° 0 mm 4 m/S 687 mmHg 83%
    11:00 -2°C° 0 mm 4 m/S 688 mmHg 82%
    12:00 -2°C° 0 mm 4 m/S 688 mmHg 81%
    13:00 -1°C° 0 mm 4 m/S 689 mmHg 79%
    14:00 -2°C° 0 mm 4 m/S 689 mmHg 81%
    15:00 -1°C° 0 mm 3 m/S 690 mmHg 83%
    16:00 -2°C° 0 mm 3 m/S 690 mmHg 84%
    17:00 -2°C° 0 mm 2 m/S 691 mmHg 87%
    18:00 -3°C° 0 mm 2 m/S 691 mmHg 89%
    19:00 -4°C° 0 mm 2 m/S 692 mmHg 92%
    20:00 -5°C° 0 mm 2 m/S 692 mmHg 92%
    21:00 -5°C° 0 mm 2 m/S 693 mmHg 92%
    22:00 -5°C° 0 mm 2 m/S 693 mmHg 93%
    23:00 -5°C° 0 mm 2 m/S 694 mmHg 93%

    Morgen, 13 Dezember, Mittwoch

    Zeit Temperatur Niederschläge Wind Luftdruck Luftfeuchtigkeit
    00:00 -5°C° 0 mm 2 m/S 694 mmHg 93%
    01:00 -5°C° 0 mm 2 m/S 694 mmHg 93%
    02:00 -5°C° 0 mm 2 m/S 694 mmHg 92%
    03:00 -6°C° 0 mm 2 m/S 694 mmHg 91%
    04:00 -6°C° 0 mm 2 m/S 694 mmHg 91%
    05:00 -6°C° 0 mm 2 m/S 694 mmHg 89%
    06:00 -6°C° 0 mm 2 m/S 694 mmHg 88%
    07:00 -7°C° 0 mm 3 m/S 694 mmHg 87%
    08:00 -6°C° 0 mm 3 m/S 694 mmHg 82%
    09:00 -5°C° 0 mm 4 m/S 693 mmHg 77%
    10:00 -4°C° 0 mm 4 m/S 693 mmHg 72%
    11:00 -3°C° 0 mm 4 m/S 692 mmHg 69%
    12:00 -2°C° 0 mm 4 m/S 691 mmHg 65%
    13:00 -1°C° 0 mm 5 m/S 690 mmHg 62%
    14:00 -1°C° 0,3 mm 5 m/S 690 mmHg 66%
    15:00 -1°C° 0,3 mm 5 m/S 689 mmHg 69%
    16:00 -1°C° 0,3 mm 5 m/S 688 mmHg 73%
    17:00 -1°C° 0,5 mm 5 m/S 688 mmHg 76%
    18:00 -1°C° 0,5 mm 5 m/S 687 mmHg 80%
    19:00 -1°C° 0,5 mm 6 m/S 687 mmHg 83%
    20:00 -1°C° 0,4 mm 6 m/S 687 mmHg 83%
    21:00 -1°C° 0,4 mm 6 m/S 686 mmHg 83%
    22:00 -1°C° 0,4 mm 6 m/S 685 mmHg 84%
    23:00 +1°C° 0,7 mm 6 m/S 685 mmHg 85%

    übermorgen, 14 Dezember, Donnerstag

    Zeit Temperatur Niederschläge Wind Luftdruck Luftfeuchtigkeit
    00:00 0°C° 0,7 mm 7 m/S 684 mmHg 86%
    01:00 +2°C° 0,7 mm 7 m/S 684 mmHg 87%
    02:00 +2°C° 0,6 mm 7 m/S 684 mmHg 87%
    03:00 +2°C° 0,6 mm 7 m/S 684 mmHg 88%
    04:00 +2°C° 0,6 mm 7 m/S 684 mmHg 88%
    05:00 +2°C° 0,3 mm 7 m/S 685 mmHg 86%
    06:00 0°C° 0,3 mm 7 m/S 685 mmHg 85%
    07:00 -1°C° 0,3 mm 6 m/S 685 mmHg 84%
    08:00 -1°C° 0,4 mm 6 m/S 685 mmHg 85%
    09:00 0°C° 0,4 mm 5 m/S 686 mmHg 86%
    10:00 0°C° 0,4 mm 5 m/S 686 mmHg 87%
    11:00 +1°C° 0,3 mm 5 m/S 685 mmHg 85%
    12:00 +1°C° 0,3 mm 5 m/S 685 mmHg 83%
    13:00 +1°C° 0,3 mm 5 m/S 684 mmHg 82%
    14:00 +1°C° 0 mm 5 m/S 683 mmHg 82%
    15:00 +1°C° 0 mm 6 m/S 682 mmHg 82%
    16:00 +1°C° 0 mm 6 m/S 681 mmHg 82%
    17:00 0°C° 0,3 mm 7 m/S 680 mmHg 82%
    18:00 0°C° 0,3 mm 7 m/S 680 mmHg 82%
    19:00 +1°C° 0,3 mm 8 m/S 679 mmHg 82%
    20:00 0°C° 2,5 mm 8 m/S 679 mmHg 83%
    21:00 0°C° 2,5 mm 8 m/S 679 mmHg 84%
    22:00 0°C° 2,5 mm 8 m/S 679 mmHg 84%
    23:00 -1°C° 1 mm 7 m/S 680 mmHg 84%

    15 Dezember, Freitag

    Zeit Temperatur Niederschläge Wind Luftdruck Luftfeuchtigkeit
    00:00 -2°C° 1 mm 6 m/S 680 mmHg 83%
    01:00 -2°C° 1 mm 5 m/S 681 mmHg 83%
    02:00 -2°C° 0 mm 5 m/S 681 mmHg 85%
    03:00 -3°C° 0 mm 4 m/S 681 mmHg 86%
    04:00 -2°C° 0 mm 3 m/S 681 mmHg 88%
    05:00 -3°C° 0,1 mm 4 m/S 681 mmHg 87%
    06:00 -3°C° 0,1 mm 4 m/S 682 mmHg 87%
    07:00 -3°C° 0,1 mm 4 m/S 682 mmHg 87%
    08:00 -3°C° 0,1 mm 4 m/S 682 mmHg 86%
    09:00 -2°C° 0,1 mm 4 m/S 683 mmHg 85%
    10:00 -2°C° 0,1 mm 5 m/S 683 mmHg 84%
    11:00 -2°C° 0 mm 5 m/S 683 mmHg 82%
    12:00 -1°C° 0 mm 5 m/S 683 mmHg 80%
    13:00 -1°C° 0 mm 5 m/S 683 mmHg 78%
    14:00 -1°C° 0 mm 5 m/S 682 mmHg 80%
    15:00 -1°C° 0 mm 4 m/S 682 mmHg 81%
    16:00 -1°C° 0 mm 3 m/S 682 mmHg 83%
    17:00 -1°C° 0,3 mm 3 m/S 682 mmHg 84%
    18:00 -1°C° 0,3 mm 3 m/S 682 mmHg 86%
    19:00 -2°C° 0,3 mm 3 m/S 682 mmHg 87%
    20:00 -3°C° 0,7 mm 4 m/S 683 mmHg 88%
    21:00 -2°C° 0,7 mm 4 m/S 684 mmHg 89%
    22:00 -2°C° 0,7 mm 5 m/S 684 mmHg 90%
    23:00 -4°C° 0,3 mm 5 m/S 685 mmHg 90%

    16 Dezember, Samstag

    Zeit Temperatur Niederschläge Wind Luftdruck Luftfeuchtigkeit
    00:00 -4°C° 0,3 mm 5 m/S 685 mmHg 89%
    01:00 -4°C° 0,3 mm 5 m/S 686 mmHg 89%
    02:00 -4°C° 0,1 mm 4 m/S 686 mmHg 90%
    03:00 -4°C° 0,1 mm 3 m/S 687 mmHg 91%
    04:00 -3°C° 0,1 mm 2 m/S 687 mmHg 92%
    05:00 -4°C° 0 mm 2 m/S 688 mmHg 93%
    06:00 -4°C° 0 mm 2 m/S 688 mmHg 94%
    07:00 -3°C° 0 mm 1 m/S 688 mmHg 94%
    08:00 -2°C° 0 mm 1 m/S 689 mmHg 93%
    09:00 -2°C° 0 mm 1 m/S 689 mmHg 92%
    10:00 -1°C° 0 mm 1 m/S 690 mmHg 90%
    11:00 -2°C° 0 mm 2 m/S 690 mmHg 88%
    12:00 -2°C° 0 mm 2 m/S 690 mmHg 85%
    13:00 -1°C° 0 mm 2 m/S 691 mmHg 82%
    14:00 -1°C° 0 mm 2 m/S 691 mmHg 84%
    15:00 -2°C° 0 mm 2 m/S 691 mmHg 86%
    16:00 -2°C° 0 mm 2 m/S 691 mmHg 88%
    17:00 -3°C° 0 mm 2 m/S 692 mmHg 89%
    18:00 -1°C° 0 mm 1 m/S 692 mmHg 91%
    19:00 -2°C° 0 mm 1 m/S 692 mmHg 92%
    20:00 -2°C° 0 mm 1 m/S 693 mmHg 92%
    21:00 -2°C° 0 mm 1 m/S 693 mmHg 93%
    22:00 -3°C° 0 mm 1 m/S 694 mmHg 93%
    23:00 -3°C° 0 mm 1 m/S 694 mmHg 93%

    17 Dezember, Sonntag

    Zeit Temperatur Niederschläge Wind Luftdruck Luftfeuchtigkeit
    00:00 -3°C° 0 mm 1 m/S 694 mmHg 93%
    01:00 -3°C° 0 mm 1 m/S 694 mmHg 93%
    02:00 -3°C° 0 mm 1 m/S 694 mmHg 93%
    03:00 -3°C° 0 mm 1 m/S 695 mmHg 93%
    04:00 -3°C° 0 mm 1 m/S 695 mmHg 93%
    05:00 -3°C° 0 mm 1 m/S 695 mmHg 93%
    06:00 -3°C° 0 mm 1 m/S 696 mmHg 93%
    07:00 -3°C° 0 mm 1 m/S 696 mmHg 92%
    08:00 -3°C° 0 mm 1 m/S 697 mmHg 91%
    09:00 -4°C° 0 mm 2 m/S 697 mmHg 89%
    10:00 -4°C° 0 mm 2 m/S 698 mmHg 88%
    11:00 -3°C° 0 mm 2 m/S 698 mmHg 86%
    12:00 -3°C° 0 mm 2 m/S 698 mmHg 84%
    13:00 -2°C° 0 mm 2 m/S 698 mmHg 82%
    14:00 -3°C° 0 mm 2 m/S 698 mmHg 84%
    15:00 -1°C° 0 mm 1 m/S 698 mmHg 85%
    16:00 -1°C° 0 mm 1 m/S 699 mmHg 87%
    17:00 -2°C° 0 mm 1 m/S 699 mmHg 89%
    18:00 -3°C° 0 mm 1 m/S 699 mmHg 90%
    19:00 -4°C° 0 mm 1 m/S 700 mmHg 92%
    20:00 -4°C° 0 mm 1 m/S 700 mmHg 92%
    21:00 -4°C° 0 mm 1 m/S 700 mmHg 92%
    22:00 -4°C° 0 mm 1 m/S 701 mmHg 92%
    23:00 -4°C° 0 mm 1 m/S 701 mmHg 92%
    Mehr zeigen